AAL486 KMCO-KBOS

Flight info

Callsign AAL486
Flight time 2h 42m
Altitude 39000
Route FATHE4 VIYAP Q87 JROSS ELLDE Q97 PAACK JAMIE Q133 JFK ROBUC3
Aircraft B38M/M-SDE1FGHILORVWXY/HB1

Departure

Time 2026-05-05 18:26
Airport Orlando International Airport (KMCO)

Arrival

Time 2026-05-05 21:09
Airport Boston Logan International Airport (KBOS)
Time Latitude Longitude Altitude Speed Heading
2026-05-05 18:04 28.42877 -81.31625 101 ft 0 kts 129°
2026-05-05 18:18 28.42890 -81.31642 100 ft 4 kts 145°
2026-05-05 18:18 28.42913 -81.31652 99 ft 4 kts 184°
2026-05-05 18:18 28.42936 -81.31643 99 ft 4 kts 230°
2026-05-05 18:18 28.42944 -81.31628 98 ft 0 kts 257°
2026-05-05 18:21 28.42944 -81.31631 99 ft 3 kts 257°
2026-05-05 18:22 28.42940 -81.31713 101 ft 15 kts 280°
2026-05-05 18:22 28.42989 -81.31818 101 ft 16 kts 302°
2026-05-05 18:22 28.43049 -81.31926 102 ft 17 kts 298°
2026-05-05 18:22 28.42978 -81.31993 101 ft 17 kts 180°
2026-05-05 18:23 28.42848 -81.31990 103 ft 20 kts 178°
2026-05-05 18:23 28.42713 -81.31990 107 ft 19 kts 180°
2026-05-05 18:23 28.42583 -81.31989 108 ft 18 kts 180°
2026-05-05 18:23 28.42441 -81.31987 108 ft 22 kts 180°
2026-05-05 18:24 28.42289 -81.31986 109 ft 23 kts 179°
2026-05-05 18:24 28.42127 -81.31984 106 ft 25 kts 179°
2026-05-05 18:24 28.41946 -81.31981 102 ft 25 kts 178°
2026-05-05 18:24 28.41767 -81.31981 101 ft 26 kts 180°
2026-05-05 18:25 28.41586 -81.31987 98 ft 26 kts 203°
2026-05-05 18:25 28.41542 -81.32100 100 ft 25 kts 266°
2026-05-05 18:25 28.41622 -81.32199 101 ft 5 kts
2026-05-05 18:25 28.41645 -81.32198 100 ft 0 kts
2026-05-05 18:26 28.41697 -81.32198 99 ft 34 kts 359°
2026-05-05 18:26 28.42240 -81.32205 106 ft 119 kts 360°
2026-05-05 18:26 28.43318 -81.32218 170 ft 185 kts
2026-05-05 18:26 28.44723 -81.32240 840 ft 204 kts 359°
2026-05-05 18:27 28.46114 -81.32271 1976 ft 203 kts 360°
2026-05-05 18:27 28.47592 -81.32289 2459 ft 219 kts
2026-05-05 18:27 28.49168 -81.32295 2951 ft 232 kts
2026-05-05 18:27 28.50839 -81.32295 3450 ft 246 kts
2026-05-05 18:28 28.54360 -81.32326 4441 ft 260 kts 359°
2026-05-05 18:28 28.56165 -81.32263 4935 ft 260 kts
2026-05-05 18:28 28.57982 -81.32090 5431 ft 263 kts
2026-05-05 18:29 28.59810 -81.31909 5934 ft 265 kts
2026-05-05 18:29 28.61659 -81.31733 6437 ft 268 kts
2026-05-05 18:29 28.63495 -81.31535 6911 ft 270 kts
2026-05-05 18:29 28.65379 -81.31291 7395 ft 272 kts
2026-05-05 18:30 28.67263 -81.31040 7892 ft 274 kts
2026-05-05 18:30 28.69167 -81.30787 8396 ft 276 kts
2026-05-05 18:30 28.71082 -81.30535 8902 ft 278 kts
2026-05-05 18:30 28.73007 -81.30282 9415 ft 280 kts
2026-05-05 18:31 28.74986 -81.30024 9972 ft 291 kts
2026-05-05 18:31 28.77053 -81.29756 10315 ft 311 kts
2026-05-05 18:31 28.79281 -81.29469 10515 ft 337 kts
2026-05-05 18:31 28.81703 -81.29156 10707 ft 361 kts
2026-05-05 18:32 28.84243 -81.28839 11194 ft 370 kts
2026-05-05 18:32 28.86813 -81.28868 11913 ft 369 kts 352°
2026-05-05 18:32 28.89374 -81.29147 12706 ft 369 kts 351°
2026-05-05 18:32 28.91898 -81.29452 13457 ft 371 kts 351°
2026-05-05 18:33 28.94474 -81.29720 14156 ft 373 kts 352°
2026-05-05 18:33 28.97072 -81.29956 14787 ft 375 kts 352°
2026-05-05 18:33 28.99682 -81.30181 15397 ft 377 kts 352°
2026-05-05 18:33 29.02309 -81.30456 15987 ft 379 kts 351°
2026-05-05 18:34 29.04941 -81.30760 16603 ft 381 kts 351°
2026-05-05 18:34 29.07585 -81.31064 17211 ft 383 kts 351°
2026-05-05 18:34 29.10251 -81.31365 17808 ft 385 kts 351°
2026-05-05 18:34 29.12937 -81.31617 18383 ft 388 kts 352°
2026-05-05 18:35 29.15649 -81.31789 18870 ft 391 kts 353°
2026-05-05 18:35 29.18355 -81.31933 19318 ft 394 kts 353°
2026-05-05 18:35 29.21105 -81.32076 19774 ft 397 kts 353°
2026-05-05 18:35 29.23874 -81.32225 20226 ft 399 kts 352°
2026-05-05 18:36 29.26659 -81.32382 20678 ft 402 kts 352°
2026-05-05 18:36 29.29467 -81.32545 21137 ft 404 kts 352°
2026-05-05 18:36 29.32285 -81.32713 21574 ft 407 kts 352°
2026-05-05 18:36 29.35119 -81.32883 21987 ft 409 kts 351°
2026-05-05 18:37 29.37970 -81.33054 22387 ft 412 kts 351°
2026-05-05 18:37 29.40840 -81.33227 22770 ft 414 kts 351°
2026-05-05 18:37 29.43696 -81.33399 23169 ft 417 kts 351°
2026-05-05 18:37 29.46600 -81.33560 23631 ft 419 kts 351°
2026-05-05 18:38 29.49517 -81.33738 23939 ft 421 kts 351°
2026-05-05 18:38 29.52457 -81.33921 24255 ft 423 kts 351°
2026-05-05 18:38 29.55403 -81.34103 24599 ft 423 kts 351°
2026-05-05 18:38 29.58350 -81.34280 24981 ft 423 kts 351°
2026-05-05 18:39 29.60299 -81.34398 25215 ft 424 kts 351°
2026-05-05 18:39 29.64207 -81.34634 25595 ft 426 kts 351°
2026-05-05 18:39 29.67182 -81.34811 25878 ft 428 kts 351°
2026-05-05 18:39 29.69159 -81.34926 26069 ft 429 kts 351°
2026-05-05 18:40 29.73161 -81.35156 26483 ft 431 kts 351°
2026-05-05 18:40 29.75148 -81.35269 26675 ft 432 kts 351°
2026-05-05 18:40 29.78154 -81.35441 26969 ft 433 kts 351°
2026-05-05 18:40 29.81170 -81.35613 27250 ft 434 kts 351°
2026-05-05 18:41 29.84201 -81.35786 27555 ft 436 kts 351°
2026-05-05 18:41 29.87234 -81.35960 27886 ft 436 kts 351°
2026-05-05 18:41 29.90269 -81.36133 28165 ft 437 kts 351°
2026-05-05 18:41 29.93309 -81.36309 28413 ft 438 kts 351°
2026-05-05 18:42 29.96323 -81.36482 28637 ft 440 kts 351°
2026-05-05 18:42 29.99387 -81.36659 28869 ft 442 kts 351°
2026-05-05 18:42 30.02464 -81.36836 29180 ft 441 kts 351°
2026-05-05 18:42 30.05528 -81.37011 29594 ft 439 kts 350°
2026-05-05 18:43 30.08567 -81.37184 30038 ft 436 kts 350°
2026-05-05 18:43 30.11596 -81.37358 30435 ft 434 kts 350°
2026-05-05 18:43 30.14602 -81.37530 30888 ft 429 kts 350°
2026-05-05 18:43 30.17558 -81.37699 31360 ft 424 kts 350°
2026-05-05 18:44 30.20468 -81.37867 31749 ft 421 kts 350°
2026-05-05 18:44 30.23395 -81.38038 32072 ft 421 kts 349°
2026-05-05 18:44 30.26325 -81.38209 32427 ft 419 kts 349°
2026-05-05 18:44 30.29231 -81.38377 32857 ft 415 kts 349°
2026-05-05 18:45 30.32103 -81.38542 33290 ft 412 kts 349°
2026-05-05 18:45 30.34956 -81.38707 33647 ft 410 kts 349°
2026-05-05 18:45 30.37769 -81.38871 33978 ft 408 kts 349°
2026-05-05 18:45 30.40607 -81.39036 34305 ft 406 kts 349°
2026-05-05 18:46 30.43423 -81.39199 34623 ft 404 kts 349°
2026-05-05 18:46 30.46228 -81.39362 34883 ft 403 kts 349°
2026-05-05 18:46 30.49030 -81.39519 35135 ft 403 kts 349°
2026-05-05 18:46 30.51824 -81.39670 35404 ft 401 kts 349°
2026-05-05 18:47 30.54609 -81.39818 35681 ft 400 kts 348°
2026-05-05 18:47 30.57385 -81.39965 35946 ft 399 kts 348°
2026-05-05 18:47 30.60158 -81.40112 36189 ft 398 kts 348°
2026-05-05 18:47 30.62925 -81.40259 36456 ft 396 kts 348°
2026-05-05 18:48 30.65645 -81.40404 36703 ft 395 kts 348°
2026-05-05 18:48 30.68390 -81.40551 36963 ft 394 kts 348°
2026-05-05 18:48 30.71129 -81.40698 37207 ft 393 kts 348°
2026-05-05 18:48 30.73864 -81.40844 37461 ft 392 kts 348°
2026-05-05 18:49 30.76591 -81.40990 37701 ft 391 kts 347°
2026-05-05 18:49 30.79273 -81.41133 37924 ft 390 kts 347°
2026-05-05 18:49 30.81984 -81.41279 38141 ft 389 kts 347°
2026-05-05 18:49 30.84695 -81.41425 38288 ft 389 kts 347°
2026-05-05 18:50 30.87420 -81.41573 38396 ft 391 kts 347°
2026-05-05 18:50 30.90140 -81.41721 38509 ft 392 kts 347°
2026-05-05 18:50 30.92867 -81.41867 38714 ft 391 kts 347°
2026-05-05 18:50 30.95540 -81.42009 38921 ft 389 kts 347°
2026-05-05 18:51 30.98241 -81.42153 39073 ft 389 kts 347°
2026-05-05 18:51 31.00952 -81.42299 39092 ft 389 kts 347°
2026-05-05 18:51 31.06356 -81.42590 39098 ft 388 kts 347°
2026-05-05 18:52 31.11746 -81.42879 39097 ft 387 kts 347°
2026-05-05 18:52 31.17090 -81.43166 39103 ft 386 kts 347°
2026-05-05 18:53 31.22459 -81.43456 39123 ft 385 kts 348°
2026-05-05 18:53 31.25175 -81.43274 39139 ft 401 kts 360°
2026-05-05 18:53 31.27908 -81.42284 39127 ft 420 kts 11°
2026-05-05 18:54 31.33254 -81.39383 39124 ft 425 kts 13°
2026-05-05 18:54 31.38552 -81.36414 39112 ft 424 kts 13°
2026-05-05 18:55 31.43907 -81.33465 39110 ft 424 kts 12°
2026-05-05 18:55 31.49258 -81.30549 39107 ft 424 kts 12°
2026-05-05 18:56 31.54583 -81.27649 39123 ft 425 kts 12°
2026-05-05 18:56 31.59956 -81.24715 39106 ft 425 kts 12°
2026-05-05 18:57 31.65323 -81.21780 39099 ft 425 kts 12°
2026-05-05 18:57 31.70688 -81.18847 39092 ft 424 kts 12°
2026-05-05 18:58 31.76017 -81.15934 39091 ft 424 kts 12°
2026-05-05 18:58 31.81373 -81.13000 39094 ft 424 kts 12°
2026-05-05 18:59 31.86711 -81.10068 39086 ft 424 kts 12°
2026-05-05 18:59 31.92065 -81.07122 39082 ft 423 kts 12°
2026-05-05 19:00 31.97359 -81.04207 39082 ft 423 kts 12°
2026-05-05 19:00 32.02686 -81.01264 39082 ft 422 kts 12°
2026-05-05 19:01 32.08016 -80.98289 39094 ft 423 kts 12°
2026-05-05 19:01 32.13308 -80.95324 39085 ft 423 kts 13°
2026-05-05 19:02 32.18606 -80.92352 39130 ft 423 kts 13°
2026-05-05 19:02 32.23922 -80.89368 39144 ft 423 kts 13°
2026-05-05 19:03 32.29243 -80.86377 39167 ft 423 kts 13°
2026-05-05 19:03 32.34586 -80.83371 39132 ft 423 kts 13°
2026-05-05 19:04 32.39872 -80.80391 39125 ft 423 kts 13°
2026-05-05 19:04 32.45201 -80.77384 39131 ft 423 kts 13°
2026-05-05 19:05 32.50525 -80.74375 39130 ft 423 kts 13°
2026-05-05 19:05 32.55809 -80.71384 39159 ft 424 kts 13°
2026-05-05 19:06 32.61150 -80.68356 39134 ft 424 kts 13°
2026-05-05 19:06 32.66489 -80.65326 39124 ft 425 kts 13°
2026-05-05 19:07 32.71698 -80.61968 39097 ft 440 kts 23°
2026-05-05 19:07 32.74090 -80.59603 39123 ft 452 kts 30°
2026-05-05 19:07 32.76396 -80.57048 39111 ft 454 kts 31°
2026-05-05 19:08 32.80983 -80.51850 39153 ft 455 kts 32°
2026-05-05 19:08 32.85585 -80.46657 39111 ft 455 kts 31°
2026-05-05 19:09 32.90166 -80.41528 39104 ft 454 kts 31°
2026-05-05 19:09 32.94781 -80.36376 39111 ft 453 kts 31°
2026-05-05 19:10 32.99384 -80.31233 39114 ft 453 kts 31°
2026-05-05 19:10 33.03951 -80.26122 39112 ft 452 kts 31°
2026-05-05 19:11 33.08542 -80.20977 39101 ft 451 kts 31°
2026-05-05 19:11 33.13111 -80.15847 39139 ft 451 kts 31°
2026-05-05 19:12 33.17655 -80.10738 39125 ft 451 kts 31°
2026-05-05 19:12 33.22218 -80.05599 39116 ft 450 kts 31°
2026-05-05 19:13 33.26745 -80.00493 39118 ft 449 kts 31°
2026-05-05 19:13 33.31295 -79.95355 39121 ft 449 kts 32°
2026-05-05 19:14 33.35838 -79.90216 39115 ft 448 kts 32°
2026-05-05 19:14 33.40340 -79.85116 39108 ft 448 kts 32°
2026-05-05 19:15 33.44860 -79.79987 39103 ft 447 kts 32°
2026-05-05 19:15 33.49380 -79.74852 39103 ft 447 kts 32°
2026-05-05 19:16 33.53898 -79.69710 39132 ft 447 kts 32°
2026-05-05 19:16 33.58398 -79.64583 39114 ft 447 kts 32°
2026-05-05 19:17 33.62913 -79.59428 39106 ft 447 kts 32°
2026-05-05 19:17 33.67428 -79.54265 39097 ft 447 kts 32°
2026-05-05 19:18 33.71906 -79.49139 39112 ft 447 kts 33°
2026-05-05 19:18 33.76416 -79.43966 39140 ft 447 kts 33°
2026-05-05 19:19 33.80930 -79.38784 39128 ft 448 kts 33°
2026-05-05 19:19 33.85417 -79.33623 39117 ft 449 kts 33°
2026-05-05 19:20 33.89943 -79.28407 39118 ft 449 kts 33°
2026-05-05 19:20 33.94430 -79.23230 39120 ft 449 kts 33°
2026-05-05 19:21 33.98951 -79.18005 39119 ft 449 kts 33°
2026-05-05 19:21 34.03469 -79.12773 39124 ft 450 kts 34°
2026-05-05 19:22 34.07989 -79.07536 39110 ft 451 kts 34°
2026-05-05 19:22 34.12514 -79.02281 39115 ft 451 kts 34°
2026-05-05 19:23 34.17009 -78.97053 39110 ft 451 kts 34°
2026-05-05 19:23 34.21533 -78.91784 39106 ft 451 kts 34°
2026-05-05 19:24 34.26060 -78.86500 39105 ft 451 kts 35°
2026-05-05 19:24 34.30543 -78.81260 39113 ft 451 kts 35°
2026-05-05 19:25 34.35053 -78.75978 39096 ft 450 kts 35°
2026-05-05 19:25 34.39556 -78.70701 39126 ft 449 kts 35°
2026-05-05 19:26 34.44271 -78.65897 39126 ft 441 kts 28°
2026-05-05 19:26 34.49198 -78.61463 39114 ft 440 kts 28°
2026-05-05 19:27 34.54085 -78.57052 39110 ft 440 kts 28°
2026-05-05 19:27 34.58971 -78.52567 39110 ft 440 kts 29°
2026-05-05 19:28 34.63027 -78.48810 39110 ft 440 kts 29°
2026-05-05 19:28 34.67892 -78.44290 39106 ft 440 kts 29°
2026-05-05 19:29 34.72754 -78.39766 39107 ft 440 kts 30°
2026-05-05 19:29 34.77617 -78.35236 39093 ft 440 kts 30°
2026-05-05 19:30 34.82446 -78.30731 39093 ft 439 kts 30°
2026-05-05 19:30 34.87310 -78.26187 39099 ft 439 kts 30°
2026-05-05 19:31 34.92154 -78.21654 39099 ft 439 kts 30°
2026-05-05 19:31 34.97000 -78.17113 39101 ft 439 kts 30°
2026-05-05 19:32 35.01844 -78.12566 39099 ft 439 kts 30°
2026-05-05 19:32 35.06660 -78.08039 39100 ft 439 kts 30°
2026-05-05 19:33 35.11514 -78.03468 39099 ft 439 kts 30°
2026-05-05 19:33 35.16346 -77.98911 39105 ft 439 kts 30°
2026-05-05 19:34 35.21183 -77.94344 39105 ft 439 kts 30°
2026-05-05 19:35 35.28393 -77.87520 39091 ft 438 kts 30°
2026-05-05 19:35 35.33220 -77.82943 39076 ft 437 kts 30°
2026-05-05 19:36 35.38026 -77.78377 39101 ft 436 kts 30°
2026-05-05 19:36 35.42789 -77.73846 39104 ft 435 kts 30°
2026-05-05 19:37 35.47570 -77.69290 39103 ft 435 kts 30°
2026-05-05 19:37 35.52346 -77.64730 39098 ft 434 kts 30°
2026-05-05 19:38 35.57124 -77.60167 39082 ft 434 kts 30°
2026-05-05 19:38 35.61882 -77.55630 39087 ft 435 kts 30°
2026-05-05 19:39 35.66667 -77.51056 39081 ft 435 kts 30°
2026-05-05 19:39 35.71442 -77.46478 39074 ft 435 kts 30°
2026-05-05 19:40 35.76219 -77.41891 39078 ft 435 kts 30°
2026-05-05 19:40 35.80959 -77.37331 39069 ft 434 kts 30°
2026-05-05 19:41 35.85724 -77.32738 39078 ft 434 kts 30°
2026-05-05 19:41 35.90490 -77.28141 39082 ft 434 kts 30°
2026-05-05 19:42 35.95334 -77.23812 39073 ft 428 kts 24°
2026-05-05 19:42 36.00431 -77.20013 39078 ft 427 kts 23°
2026-05-05 19:43 36.05560 -77.16253 39087 ft 428 kts 23°
2026-05-05 19:43 36.10655 -77.12454 39068 ft 428 kts 24°
2026-05-05 19:44 36.15725 -77.08630 39062 ft 429 kts 24°
2026-05-05 19:44 36.20822 -77.04767 39062 ft 429 kts 24°
2026-05-05 19:45 36.25928 -77.00889 39061 ft 429 kts 24°
2026-05-05 19:45 36.31027 -76.97012 39066 ft 430 kts 24°
2026-05-05 19:46 36.36102 -76.93148 39055 ft 430 kts 24°
2026-05-05 19:46 36.41208 -76.89254 39054 ft 431 kts 24°
2026-05-05 19:47 36.46326 -76.85345 39054 ft 431 kts 24°
2026-05-05 19:47 36.51407 -76.81459 39053 ft 432 kts 24°
2026-05-05 19:48 36.56532 -76.77533 39057 ft 432 kts 24°
2026-05-05 19:48 36.61659 -76.73598 39054 ft 433 kts 25°
2026-05-05 19:49 36.66785 -76.69658 39052 ft 433 kts 25°
2026-05-05 19:49 36.71917 -76.65707 39056 ft 434 kts 25°
2026-05-05 19:50 36.77048 -76.61751 39059 ft 434 kts 25°
2026-05-05 19:50 36.82196 -76.57775 39052 ft 434 kts 25°
2026-05-05 19:51 36.87316 -76.53814 39038 ft 434 kts 25°
2026-05-05 19:51 36.92468 -76.49823 39057 ft 434 kts 24°
2026-05-05 19:52 36.97577 -76.45860 39042 ft 435 kts 25°
2026-05-05 19:52 37.02732 -76.41852 39033 ft 436 kts 25°
2026-05-05 19:53 37.07879 -76.37845 39027 ft 436 kts 25°
2026-05-05 19:53 37.13040 -76.33820 39028 ft 436 kts 25°
2026-05-05 19:54 37.18203 -76.29787 39030 ft 437 kts 25°
2026-05-05 19:54 37.23365 -76.25748 39023 ft 437 kts 25°
2026-05-05 19:55 37.28494 -76.21729 39014 ft 437 kts 25°
2026-05-05 19:55 37.33657 -76.17675 39009 ft 438 kts 25°
2026-05-05 19:56 37.38829 -76.13608 39015 ft 438 kts 25°
2026-05-05 19:56 37.44014 -76.09524 39009 ft 440 kts 25°
2026-05-05 19:57 37.49221 -76.05416 39009 ft 441 kts 26°
2026-05-05 19:57 37.54403 -76.01317 39002 ft 443 kts 26°
2026-05-05 19:58 37.59646 -75.97166 39000 ft 445 kts 26°
2026-05-05 19:58 37.64866 -75.92941 39022 ft 447 kts 27°
2026-05-05 19:59 37.70042 -75.88634 39027 ft 448 kts 27°
2026-05-05 19:59 37.75252 -75.84288 39025 ft 448 kts 27°
2026-05-05 20:00 37.80465 -75.79946 39030 ft 448 kts 27°
2026-05-05 20:00 37.85663 -75.75615 39031 ft 448 kts 27°
2026-05-05 20:01 37.90887 -75.71258 39026 ft 448 kts 27°
2026-05-05 20:01 37.96072 -75.66924 39032 ft 448 kts 27°
2026-05-05 20:02 38.01288 -75.62556 39016 ft 448 kts 27°
2026-05-05 20:02 38.06468 -75.58211 38996 ft 448 kts 27°
2026-05-05 20:03 38.11686 -75.53825 38992 ft 449 kts 27°
2026-05-05 20:03 38.16867 -75.49461 38999 ft 449 kts 27°
2026-05-05 20:04 38.22079 -75.45065 38994 ft 450 kts 28°
2026-05-05 20:04 38.27484 -75.41194 38992 ft 441 kts 14°
2026-05-05 20:05 38.33363 -75.39417 38991 ft 432 kts
2026-05-05 20:05 38.39278 -75.38264 38982 ft 433 kts
2026-05-05 20:06 38.45265 -75.37059 38985 ft 435 kts
2026-05-05 20:06 38.51226 -75.35810 38982 ft 436 kts
2026-05-05 20:07 38.57233 -75.34535 38979 ft 438 kts
2026-05-05 20:07 38.63247 -75.33256 38978 ft 439 kts
2026-05-05 20:08 38.69290 -75.31969 38969 ft 440 kts
2026-05-05 20:08 38.75351 -75.30628 38958 ft 444 kts
2026-05-05 20:09 38.81110 -75.27671 38969 ft 455 kts 23°
2026-05-05 20:09 38.86653 -75.23657 38973 ft 457 kts 24°
2026-05-05 20:10 38.92188 -75.19624 38952 ft 457 kts 24°
2026-05-05 20:10 38.97695 -75.15671 38934 ft 456 kts 24°
2026-05-05 20:11 39.03251 -75.11704 38930 ft 456 kts 24°
2026-05-05 20:11 39.08800 -75.07737 38935 ft 455 kts 24°
2026-05-05 20:12 39.14309 -75.03787 38937 ft 455 kts 24°
2026-05-05 20:12 39.19841 -74.99811 38961 ft 455 kts 24°
2026-05-05 20:13 39.25226 -74.95452 38962 ft 459 kts 30°
2026-05-05 20:13 39.30421 -74.90611 38959 ft 460 kts 31°
2026-05-05 20:14 39.35580 -74.85765 38945 ft 460 kts 31°
2026-05-05 20:14 39.39917 -74.81745 38935 ft 460 kts 30°
2026-05-05 20:15 39.45147 -74.76933 38934 ft 461 kts 30°
2026-05-05 20:15 39.50378 -74.72126 38943 ft 461 kts 30°
2026-05-05 20:16 39.55613 -74.67305 38935 ft 462 kts 30°
2026-05-05 20:16 39.60822 -74.62496 38934 ft 462 kts 30°
2026-05-05 20:17 39.66062 -74.57648 38935 ft 463 kts 31°
2026-05-05 20:17 39.71308 -74.52786 38918 ft 463 kts 31°
2026-05-05 20:18 39.76550 -74.47918 38903 ft 463 kts 31°
2026-05-05 20:18 39.81761 -74.43070 38902 ft 462 kts 31°
2026-05-05 20:19 39.86995 -74.38192 38907 ft 463 kts 31°
2026-05-05 20:19 39.92245 -74.33288 38895 ft 463 kts 31°
2026-05-05 20:20 39.97446 -74.28421 38903 ft 462 kts 31°
2026-05-05 20:20 40.02681 -74.23514 38895 ft 462 kts 31°
2026-05-05 20:21 40.07903 -74.18608 38907 ft 463 kts 31°
2026-05-05 20:21 40.10530 -74.16138 38727 ft 467 kts 31°
2026-05-05 20:21 40.13177 -74.13648 38199 ft 467 kts 31°
2026-05-05 20:21 40.15764 -74.11206 37716 ft 461 kts 31°
2026-05-05 20:22 40.18362 -74.08750 37210 ft 457 kts 31°
2026-05-05 20:22 40.20936 -74.06316 36733 ft 453 kts 31°
2026-05-05 20:22 40.23489 -74.03902 36276 ft 449 kts 30°
2026-05-05 20:22 40.26012 -74.01513 35812 ft 446 kts 30°
2026-05-05 20:23 40.28495 -73.99162 35372 ft 442 kts 30°
2026-05-05 20:23 40.30980 -73.96805 34926 ft 438 kts 30°
2026-05-05 20:23 40.33434 -73.94476 34488 ft 434 kts 30°
2026-05-05 20:23 40.35879 -73.92154 34065 ft 431 kts 29°
2026-05-05 20:24 40.38297 -73.89855 33588 ft 427 kts 29°
2026-05-05 20:24 40.40694 -73.87576 33094 ft 424 kts 30°
2026-05-05 20:24 40.43080 -73.85305 32617 ft 421 kts 30°
2026-05-05 20:24 40.45415 -73.83081 32148 ft 419 kts 30°
2026-05-05 20:25 40.47793 -73.80814 31679 ft 416 kts 30°
2026-05-05 20:25 40.50106 -73.78606 31231 ft 414 kts 30°
2026-05-05 20:25 40.52436 -73.76380 30792 ft 413 kts 31°
2026-05-05 20:25 40.54756 -73.74162 30340 ft 411 kts 31°
2026-05-05 20:26 40.57064 -73.71952 29897 ft 410 kts 31°
2026-05-05 20:26 40.59364 -73.69748 29396 ft 408 kts 31°
2026-05-05 20:26 40.61655 -73.67551 28891 ft 406 kts 31°
2026-05-05 20:26 40.63908 -73.65387 28413 ft 404 kts 31°
2026-05-05 20:27 40.66177 -73.63207 27933 ft 402 kts 31°
2026-05-05 20:27 40.68438 -73.61033 27457 ft 400 kts 31°
2026-05-05 20:27 40.70684 -73.58871 27012 ft 398 kts 32°
2026-05-05 20:27 40.72893 -73.56740 26901 ft 387 kts 32°
2026-05-05 20:28 40.75031 -73.54675 26880 ft 377 kts 31°
2026-05-05 20:28 40.77149 -73.52632 26902 ft 379 kts 31°
2026-05-05 20:28 40.79291 -73.50568 26918 ft 384 kts 31°
2026-05-05 20:28 40.81466 -73.48469 26910 ft 388 kts 31°
2026-05-05 20:29 40.83617 -73.46389 26888 ft 387 kts 31°
2026-05-05 20:29 40.85779 -73.44252 26883 ft 389 kts 36°
2026-05-05 20:29 40.87708 -73.41730 26901 ft 391 kts 43°
2026-05-05 20:29 40.89523 -73.39023 26887 ft 392 kts 45°
2026-05-05 20:30 40.91306 -73.36282 26889 ft 392 kts 45°
2026-05-05 20:30 40.93063 -73.33584 26894 ft 391 kts 45°
2026-05-05 20:30 40.94855 -73.30860 26892 ft 391 kts 45°
2026-05-05 20:30 40.96651 -73.28159 26882 ft 390 kts 44°
2026-05-05 20:31 40.98458 -73.25460 26897 ft 390 kts 44°
2026-05-05 20:31 41.00265 -73.22771 26895 ft 391 kts 44°
2026-05-05 20:31 41.02080 -73.20075 26690 ft 395 kts 44°
2026-05-05 20:31 41.03923 -73.17337 26202 ft 399 kts 44°
2026-05-05 20:32 41.05744 -73.14627 25768 ft 398 kts 44°
2026-05-05 20:32 41.07593 -73.11872 25344 ft 398 kts 45°
2026-05-05 20:32 41.09438 -73.09120 24913 ft 398 kts 45°
2026-05-05 20:32 41.11256 -73.06406 24491 ft 397 kts 45°
2026-05-05 20:33 41.13085 -73.03672 24069 ft 395 kts 45°
2026-05-05 20:33 41.14909 -73.00943 23659 ft 394 kts 45°
2026-05-05 20:33 41.16724 -72.98226 23206 ft 393 kts 45°
2026-05-05 20:33 41.18536 -72.95512 22902 ft 387 kts 45°
2026-05-05 20:34 41.20293 -72.92878 22895 ft 378 kts 45°
2026-05-05 20:34 41.21870 -72.90072 22876 ft 381 kts 58°
2026-05-05 20:34 41.23116 -72.86942 22900 ft 386 kts 61°
2026-05-05 20:34 41.24308 -72.83729 22895 ft 388 kts 62°
2026-05-05 20:35 41.25487 -72.80508 22881 ft 387 kts 62°
2026-05-05 20:35 41.26670 -72.77300 22880 ft 386 kts 61°
2026-05-05 20:35 41.27846 -72.74145 22886 ft 385 kts 61°
2026-05-05 20:35 41.29048 -72.70955 22732 ft 388 kts 61°
2026-05-05 20:36 41.30267 -72.67736 22475 ft 389 kts 61°
2026-05-05 20:36 41.31481 -72.64539 22212 ft 386 kts 61°
2026-05-05 20:36 41.32690 -72.61357 21940 ft 382 kts 61°
2026-05-05 20:36 41.33874 -72.58240 21556 ft 381 kts 61°
2026-05-05 20:37 41.35069 -72.55092 21180 ft 381 kts 61°
2026-05-05 20:37 41.36264 -72.51939 20807 ft 380 kts 61°
2026-05-05 20:37 41.37454 -72.48797 20441 ft 380 kts 62°
2026-05-05 20:37 41.38641 -72.45658 20063 ft 379 kts 62°
2026-05-05 20:38 41.39827 -72.42518 19702 ft 379 kts 62°
2026-05-05 20:38 41.41010 -72.39384 19338 ft 377 kts 62°
2026-05-05 20:38 41.42171 -72.36302 18976 ft 375 kts 62°
2026-05-05 20:38 41.43335 -72.33207 18621 ft 373 kts 62°
2026-05-05 20:39 41.44490 -72.30135 18279 ft 371 kts 62°
2026-05-05 20:39 41.45641 -72.27070 17890 ft 369 kts 62°
2026-05-05 20:39 41.46790 -72.24012 17476 ft 367 kts 63°
2026-05-05 20:39 41.47935 -72.20960 17073 ft 365 kts 62°
2026-05-05 20:40 41.49042 -72.17966 16681 ft 364 kts 63°
2026-05-05 20:40 41.50155 -72.14927 16288 ft 362 kts 63°
2026-05-05 20:40 41.51261 -72.11894 15946 ft 360 kts 63°
2026-05-05 20:40 41.52344 -72.08923 15900 ft 351 kts 62°
2026-05-05 20:41 41.53412 -72.05999 15897 ft 351 kts 62°
2026-05-05 20:41 41.54475 -72.03086 15904 ft 355 kts 62°
2026-05-05 20:41 41.55560 -72.00111 15896 ft 357 kts 63°
2026-05-05 20:41 41.56545 -71.97077 15894 ft 356 kts 67°
2026-05-05 20:42 41.57445 -71.94003 15902 ft 355 kts 68°
2026-05-05 20:42 41.58341 -71.90927 15891 ft 354 kts 68°
2026-05-05 20:42 41.59249 -71.87856 15885 ft 354 kts 67°
2026-05-05 20:42 41.60144 -71.84845 15895 ft 353 kts 67°
2026-05-05 20:43 41.61050 -71.81788 15908 ft 353 kts 67°
2026-05-05 20:43 41.61952 -71.78736 15905 ft 354 kts 68°
2026-05-05 20:43 41.62856 -71.75670 15902 ft 354 kts 68°
2026-05-05 20:43 41.63769 -71.72573 15505 ft 362 kts 67°
2026-05-05 20:44 41.64696 -71.69420 15073 ft 365 kts 67°
2026-05-05 20:44 41.65625 -71.66257 14638 ft 365 kts 67°
2026-05-05 20:44 41.66543 -71.63129 14210 ft 365 kts 67°
2026-05-05 20:44 41.67470 -71.59971 13788 ft 365 kts 66°
2026-05-05 20:45 41.69264 -71.53843 12873 ft 365 kts 67°
2026-05-05 20:45 41.70191 -71.50674 12415 ft 365 kts 67°
2026-05-05 20:45 41.71115 -71.47510 11964 ft 365 kts 67°
2026-05-05 20:46 41.72039 -71.44343 11515 ft 365 kts 67°
2026-05-05 20:46 41.73064 -71.41239 11141 ft 361 kts 59°
2026-05-05 20:46 41.74284 -71.38431 11092 ft 347 kts 56°
2026-05-05 20:46 41.75518 -71.35714 11072 ft 337 kts 56°
2026-05-05 20:47 41.76706 -71.33030 11077 ft 334 kts 57°
2026-05-05 20:47 41.77873 -71.30333 11007 ft 338 kts 57°
2026-05-05 20:47 41.79045 -71.27594 10752 ft 338 kts 57°
2026-05-05 20:47 41.80204 -71.24870 10499 ft 334 kts 57°
2026-05-05 20:48 41.81349 -71.22178 10257 ft 330 kts 58°
2026-05-05 20:48 41.82478 -71.19521 10122 ft 322 kts 57°
2026-05-05 20:48 41.83557 -71.16980 10097 ft 313 kts 57°
2026-05-05 20:48 41.84639 -71.14434 10072 ft 311 kts 57°
2026-05-05 20:49 41.85711 -71.11916 9858 ft 315 kts 57°
2026-05-05 20:49 41.86807 -71.09372 9602 ft 313 kts 57°
2026-05-05 20:49 41.87900 -71.06848 9337 ft 311 kts 57°
2026-05-05 20:49 41.88988 -71.04340 9067 ft 309 kts 58°
2026-05-05 20:50 41.90051 -71.01882 8810 ft 308 kts 58°
2026-05-05 20:50 41.91127 -70.99392 8561 ft 307 kts 58°
2026-05-05 20:50 41.92198 -70.96908 8305 ft 307 kts 58°
2026-05-05 20:50 41.93264 -70.94431 8127 ft 309 kts 59°
2026-05-05 20:51 41.94345 -70.91919 8104 ft 309 kts 59°
2026-05-05 20:51 41.95416 -70.89425 8088 ft 305 kts 59°
2026-05-05 20:51 41.96475 -70.86956 8057 ft 306 kts 59°
2026-05-05 20:51 41.97533 -70.84491 8076 ft 311 kts 58°
2026-05-05 20:52 41.98618 -70.81961 8087 ft 313 kts 58°
2026-05-05 20:52 41.99711 -70.79410 8116 ft 313 kts 59°
2026-05-05 20:52 42.00791 -70.76892 8089 ft 308 kts 58°
2026-05-05 20:52 42.02034 -70.74568 8054 ft 305 kts 45°
2026-05-05 20:53 42.03469 -70.72472 8064 ft 305 kts 43°
2026-05-05 20:53 42.04917 -70.70416 8064 ft 306 kts 43°
2026-05-05 20:53 42.06373 -70.68302 8062 ft 308 kts 44°
2026-05-05 20:53 42.07804 -70.66181 8045 ft 302 kts 44°
2026-05-05 20:54 42.09186 -70.64112 8062 ft 291 kts 44°
2026-05-05 20:54 42.10601 -70.62178 7979 ft 289 kts 30°
2026-05-05 20:54 42.12408 -70.61110 7731 ft 278 kts
2026-05-05 20:54 42.14290 -70.60558 7501 ft 276 kts
2026-05-05 20:55 42.16153 -70.60069 7275 ft 275 kts
2026-05-05 20:55 42.18042 -70.59574 7028 ft 275 kts
2026-05-05 20:55 42.19929 -70.59069 6797 ft 276 kts
2026-05-05 20:55 42.21817 -70.58555 6552 ft 277 kts
2026-05-05 20:56 42.23681 -70.58040 6301 ft 278 kts
2026-05-05 20:56 42.25598 -70.57507 6053 ft 278 kts
2026-05-05 20:56 42.27480 -70.56982 5809 ft 279 kts
2026-05-05 20:56 42.29377 -70.56453 5558 ft 279 kts
2026-05-05 20:57 42.31287 -70.56012 5286 ft 272 kts 352°
2026-05-05 20:57 42.33020 -70.56554 5101 ft 245 kts 321°
2026-05-05 20:57 42.34396 -70.57810 5069 ft 234 kts 307°
2026-05-05 20:57 42.35568 -70.59301 5039 ft 229 kts 304°
2026-05-05 20:58 42.36692 -70.60809 5034 ft 226 kts 303°
2026-05-05 20:58 42.37794 -70.62292 5026 ft 226 kts 303°
2026-05-05 20:58 42.38917 -70.63800 5024 ft 227 kts 304°
2026-05-05 20:58 42.40044 -70.65303 5020 ft 227 kts 304°
2026-05-05 20:59 42.41173 -70.66802 5008 ft 228 kts 304°
2026-05-05 20:59 42.42307 -70.68304 5008 ft 228 kts 304°
2026-05-05 20:59 42.43445 -70.69809 5012 ft 228 kts 304°
2026-05-05 20:59 42.44566 -70.71288 4985 ft 227 kts 304°
2026-05-05 21:00 42.45681 -70.72754 4825 ft 220 kts 303°
2026-05-05 21:00 42.46759 -70.74170 4571 ft 211 kts 303°
2026-05-05 21:00 42.47790 -70.75526 4299 ft 203 kts 303°
2026-05-05 21:00 42.48790 -70.76849 4064 ft 200 kts 303°
2026-05-05 21:01 42.49781 -70.78161 3810 ft 195 kts 303°
2026-05-05 21:01 42.50804 -70.79372 3557 ft 200 kts 314°
2026-05-05 21:01 42.52005 -70.80326 3333 ft 204 kts 316°
2026-05-05 21:01 42.53232 -70.81321 3103 ft 204 kts 316°
2026-05-05 21:02 42.54421 -70.82279 3002 ft 195 kts 315°
2026-05-05 21:02 42.55368 -70.83428 2997 ft 173 kts 291°
2026-05-05 21:02 42.55949 -70.84828 2989 ft 168 kts 283°
2026-05-05 21:02 42.56461 -70.86255 2990 ft 168 kts 282°
2026-05-05 21:03 42.56688 -70.87723 2985 ft 152 kts 254°
2026-05-05 21:03 42.56396 -70.89111 2996 ft 163 kts 245°
2026-05-05 21:03 42.55920 -70.90500 2977 ft 161 kts 225°
2026-05-05 21:03 42.54917 -70.91125 3002 ft 163 kts 199°
2026-05-05 21:04 42.53921 -70.91719 2983 ft 146 kts 210°
2026-05-05 21:04 42.53345 -70.92129 2981 ft 136 kts 208°
2026-05-05 21:04 42.52521 -70.92648 2963 ft 127 kts 205°
2026-05-05 21:04 42.51716 -70.93091 2935 ft 126 kts 205°
2026-05-05 21:05 42.50886 -70.93520 2769 ft 125 kts 203°
2026-05-05 21:05 42.50077 -70.93922 2611 ft 124 kts 202°
2026-05-05 21:05 42.49257 -70.94322 2457 ft 129 kts 201°
2026-05-05 21:05 42.48392 -70.94745 2298 ft 132 kts 200°
2026-05-05 21:06 42.47534 -70.95160 2104 ft 126 kts 200°
2026-05-05 21:06 42.46723 -70.95551 1960 ft 122 kts 201°
2026-05-05 21:06 42.45912 -70.95945 1801 ft 125 kts 200°
2026-05-05 21:06 42.45080 -70.96350 1645 ft 128 kts 199°
2026-05-05 21:07 42.44233 -70.96761 1450 ft 129 kts 197°
2026-05-05 21:07 42.43389 -70.97168 1280 ft 130 kts 199°
2026-05-05 21:07 42.42544 -70.97577 1117 ft 131 kts 199°
2026-05-05 21:07 42.41683 -70.97997 930 ft 130 kts 198°
2026-05-05 21:08 42.40827 -70.98402 774 ft 130 kts 200°
2026-05-05 21:08 42.39978 -70.98810 609 ft 127 kts 199°
2026-05-05 21:08 42.39146 -70.99238 430 ft 131 kts 200°
2026-05-05 21:08 42.38280 -70.99640 248 ft 131 kts 202°
2026-05-05 21:09 42.37428 -71.00065 59 ft 129 kts 198°
2026-05-05 21:09 42.36673 -71.00424 25 ft 88 kts 200°
2026-05-05 21:09 42.36262 -71.00624 27 ft 37 kts 200°
2026-05-05 21:09 42.36152 -71.00790 27 ft 20 kts 272°
2026-05-05 21:10 42.36196 -71.00964 26 ft 19 kts 292°
2026-05-05 21:10 42.36253 -71.01124 27 ft 19 kts 296°
2026-05-05 21:10 42.36314 -71.01279 24 ft 19 kts 282°
2026-05-05 21:10 42.36226 -71.01387 27 ft 19 kts 200°
2026-05-05 21:11 42.36087 -71.01454 27 ft 23 kts 199°
2026-05-05 21:11 42.35938 -71.01527 26 ft 20 kts 205°
2026-05-05 21:11 42.35899 -71.01693 25 ft 22 kts 281°
2026-05-05 21:11 42.35950 -71.01894 24 ft 23 kts 302°
2026-05-05 21:12 42.36019 -71.02041 29 ft 14 kts 315°
2026-05-05 21:12 42.36109 -71.02074 28 ft 10 kts 347°
2026-05-05 21:12 42.36129 -71.02081 26 ft 0 kts 347°